[[{"header":{"parameterUnit":"m.s-1","parameterCategory":1,"la1":30.2991,"la2":30.254,"lo1":-89.0895,"lo2":-89.0444,"dy":0.0017,"dx":0.0017,"nx":28,"ny":28,"refTime":"2025-06-01T03:00:00:Z","depth":0,"parameterNumber":2,"parameterNumberName":"U-component_of_WINDS"},"data":[0,0,0,0,0,0,0,0,0,0,0,0,0,0,0,0,0,0,0,0,0,0,0,0,0,0,0,0,0,0,0,0,0,0,0,0,0,0,0,0,0,0,0,0,0,0,0,0,0,0,0,0,0,0,0,0,0,0,-0.5723,-0.5723,0,-0.5719,-0.5719,-0.5719,-0.5695,-0.5694,-0.5694,-0.5693,-0.5689,-0.569,-0.569,0,0,0,0,0,0,0,0,0,0,0,0,0,-0.5708,-0.5708,-0.5723,-0.5723,-0.5723,-0.5719,-0.5719,-0.5719,-0.5695,-0.5694,-0.5693,-0.5693,-0.5689,-0.569,-0.569,0,0,0,0,0,0,0,0,0,0,0,0,0,-0.5711,-0.5709,-0.5723,-0.571,-0.5709,-0.5719,-0.5719,-0.5719,-0.5695,-0.5694,-0.5693,-0.5692,-0.5689,-0.569,-0.5691,-0.5713,0,0,-0.5693,-0.5693,0,0,0,0,0,0,0,0,-0.571,-0.5711,-0.5712,-0.5711,-0.571,-0.5707,-0.5713,-0.5717,-0.5695,-0.57,-0.5693,-0.5692,-0.5696,-0.5696,-0.5697,-0.5713,-0.5713,-0.5693,-0.5693,-0.5693,-0.5694,0,0,0,0,0,0,0,-0.571,-0.5711,-0.5721,-0.5712,-0.5711,-0.5705,-0.5704,-0.5714,-0.5703,-0.57,-0.5698,-0.5698,-0.5695,-0.5697,-0.5697,-0.5713,-0.5693,-0.5693,-0.5694,-0.5694,-0.5746,-0.5747,0,0,0,0,0,0,-0.5712,-0.5711,-0.5721,-0.5721,-0.5708,-0.5706,-0.5705,-0.5708,-0.5703,-0.5701,-0.5699,-0.5697,-0.5696,-0.5696,-0.5697,-0.5722,-0.5693,-0.5694,-0.5695,-0.5745,-0.5746,-0.5747,0,0,0,0,0,0,-0.5712,-0.5713,-0.5722,-0.5716,-0.5716,-0.5707,-0.5711,-0.5709,-0.571,-0.5702,-0.57,-0.5702,-0.5695,-0.5696,-0.5709,-0.5722,-0.5694,-0.5695,-0.5744,-0.5745,-0.5747,-0.5773,0,0,0,0,0,0,-0.5711,-0.5713,-0.5721,-0.5716,-0.5717,-0.5734,-0.5712,-0.5709,-0.5712,-0.5709,-0.5705,-0.5703,-0.5695,-0.5708,-0.571,-0.5722,-0.5696,-0.5743,-0.5744,-0.5746,-0.5771,-0.5775,-0.5779,0,0,0,0,0,-0.5711,-0.5729,-0.5722,-0.5723,-0.5727,-0.5735,-0.5735,-0.5724,-0.5713,-0.5721,-0.5716,-0.5704,-0.572,-0.571,-0.5711,-0.5724,-0.5742,-0.5744,-0.5746,-0.5769,-0.5775,-0.5779,0,0,0,0,0,0,-0.5736,-0.5728,-0.572,-0.5737,-0.5737,-0.573,-0.574,-0.573,-0.5733,-0.5731,-0.5718,-0.5717,-0.5732,-0.5729,-0.5718,-0.5745,-0.5729,-0.5731,-0.5746,-0.5751,-0.5755,-0.5755,-0.5696,0,0,0,0,0,-0.5744,-0.5751,-0.5743,-0.5759,-0.5759,-0.575,-0.5753,-0.5745,-0.5744,-0.5744,-0.5739,-0.5739,-0.5744,-0.5748,-0.5752,-0.5771,-0.577,-0.5781,-0.5785,-0.5788,-0.579,-0.58,-0.5804,-0.5754,-0.5754,-0.5754,0,0,-0.5759,-0.5756,-0.5761,-0.5764,-0.5763,-0.577,-0.575,-0.5759,-0.5764,-0.5745,-0.5757,-0.5754,-0.5752,-0.5769,-0.5776,-0.5767,-0.5804,-0.5791,-0.5793,-0.5794,-0.5802,-0.5807,-0.5811,-0.5756,-0.5755,-0.5755,0,0,-0.5791,-0.579,-0.5802,-0.5801,-0.58,-0.5794,-0.5797,-0.5792,-0.5789,-0.5801,-0.5787,-0.5793,-0.5803,-0.5802,-0.5803,-0.5835,-0.5824,-0.5837,-0.5857,-0.5867,-0.5871,-0.5874,-0.5885,-0.5889,-0.5839,-0.5839,-0.584,0,-0.581,-0.5821,-0.581,-0.5819,-0.5821,-0.5805,-0.5817,-0.5817,-0.5817,-0.5819,-0.5809,-0.582,-0.5818,-0.5834,-0.5842,-0.5843,-0.5846,-0.5837,-0.5871,-0.5874,-0.5877,-0.5887,-0.5891,-0.5841,-0.5841,-0.5841,-0.5841,0,-0.5844,-0.5852,-0.5862,-0.5863,-0.5866,-0.5877,-0.5867,-0.5872,-0.5864,-0.5859,-0.5871,-0.5868,-0.5871,-0.5875,-0.5867,-0.5889,-0.5884,-0.5873,-0.5856,-0.5884,-0.5893,-0.5897,-0.5843,-0.5843,-0.5842,-0.5842,0,0,-0.5891,-0.5885,-0.5889,-0.5889,-0.5886,-0.5892,-0.5902,-0.5906,-0.5909,-0.591,-0.5918,-0.5927,-0.5917,-0.5918,-0.591,-0.5919,-0.5943,-0.5906,-0.5906,-0.5913,-0.5967,-0.5974,-0.5979,-0.5936,-0.5937,-0.5938,-0.5967,0,-0.592,-0.5938,-0.5928,-0.5947,-0.5953,-0.5938,-0.5947,-0.5947,-0.5943,-0.5947,-0.5943,-0.5949,-0.5935,-0.5936,-0.5944,-0.5939,-0.5954,-0.5937,-0.5943,-0.5944,-0.5943,-0.5984,-0.5992,-0.6019,-0.597,-0.5971,-0.5971,0,-0.5957,-0.5959,-0.5978,-0.5974,-0.5977,-0.5985,-0.5987,-0.5992,-0.5992,-0.5988,-0.5989,-0.598,-0.599,-0.5974,-0.5987,-0.5976,-0.5978,-0.5976,-0.5977,-0.5976,-0.5958,-0.5983,-0.6028,-0.6031,-0.5977,-0.5977,-0.5976,0,-0.5988,-0.5996,-0.6008,-0.6009,-0.6004,-0.6011,-0.6009,-0.6007,-0.601,-0.6012,-0.6014,-0.6017,-0.6019,-0.6022,-0.6013,-0.6002,-0.6027,-0.6011,-0.6024,-0.6024,-0.6029,-0.6028,-0.6073,-0.6032,-0.6032,-0.6032,-0.6032,0,-0.6021,-0.6033,-0.6022,-0.6029,-0.6042,-0.6032,-0.6045,-0.6042,-0.6041,-0.6047,-0.6035,-0.6041,-0.603,-0.6036,-0.6029,-0.6041,-0.6042,-0.6039,-0.6037,-0.6039,-0.604,-0.604,-0.6037,-0.6033,-0.6033,-0.6033,-0.6033,0,-0.6057,-0.605,-0.6062,-0.6058,-0.6057,-0.6066,-0.6062,-0.6069,-0.6064,-0.6073,-0.6074,-0.6067,-0.6072,-0.6065,-0.607,-0.6065,-0.6081,-0.6077,-0.6081,-0.6079,-0.6092,-0.6091,-0.6138,-0.6143,-0.61,-0.6101,-0.6101,0,-0.6078,-0.6087,-0.6083,-0.6087,-0.6086,-0.6092,-0.6095,-0.6085,-0.6088,-0.6088,-0.6095,-0.61,-0.6103,-0.6113,-0.6107,-0.6111,-0.6106,-0.6123,-0.6107,-0.6109,-0.6105,-0.6104,-0.6105,-0.6125,-0.6126,-0.6126,-0.6127,0,-0.6116,-0.6112,-0.6116,-0.6119,-0.6123,-0.6125,-0.6126,-0.6129,-0.6119,-0.6124,-0.6129,-0.6132,-0.6137,-0.6142,-0.6144,-0.6143,-0.6133,-0.6132,-0.6135,-0.6137,-0.6139,-0.6137,-0.6089,-0.613,-0.613,-0.613,-0.613,-0.6129,-0.6144,-0.6151,-0.615,-0.6155,-0.6155,-0.6156,-0.6162,-0.6158,-0.6163,-0.6166,-0.6161,-0.6168,-0.6167,-0.6169,-0.6169,-0.6174,-0.6167,-0.6172,-0.6173,-0.6174,-0.6175,-0.6139,-0.6175,-0.6175,-0.6175,-0.6174,-0.6174,0,-0.618,-0.6179,-0.6184,-0.6186,-0.619,-0.6181,-0.6182,-0.6185,-0.6192,-0.6192,-0.6195,-0.6202,-0.6207,-0.6202,-0.6206,-0.6211,-0.6207,-0.6212,-0.6211,-0.6211,-0.6182,-0.6178,-0.6216,-0.6216,-0.6216,-0.6216,-0.6216,-0.6216,-0.62,-0.6211,-0.6207,-0.6218,-0.6217,-0.6223,-0.6225,-0.6226,-0.6226,-0.6233,-0.6237,-0.6235,-0.6233,-0.6236,-0.624,-0.6239,-0.624,-0.6247,-0.6244,-0.6217,-0.6213,-0.6209,-0.6206,-0.6248,-0.6248,-0.6273,-0.6273,-0.6273]},{"header":{"parameterUnit":"m.s-1","parameterCategory":1,"la1":30.2991,"la2":30.254,"lo1":-89.0895,"lo2":-89.0444,"dy":0.0017,"dx":0.0017,"nx":28,"ny":28,"refTime":"2025-06-01T03:00:00:Z","depth":0,"parameterNumber":3,"parameterNumberName":"V-component_of_WINDS"},"data":[0,0,0,0,0,0,0,0,0,0,0,0,0,0,0,0,0,0,0,0,0,0,0,0,0,0,0,0,0,0,0,0,0,0,0,0,0,0,0,0,0,0,0,0,0,0,0,0,0,0,0,0,0,0,0,0,0,0,-0.3788,-0.3787,0,-0.377,-0.377,-0.377,-0.3748,-0.3747,-0.3747,-0.3747,-0.3728,-0.3728,-0.3728,0,0,0,0,0,0,0,0,0,0,0,0,0,-0.3802,-0.3802,-0.3788,-0.3787,-0.3787,-0.377,-0.377,-0.377,-0.3748,-0.3747,-0.3747,-0.3747,-0.3729,-0.3728,-0.3728,0,0,0,0,0,0,0,0,0,0,0,0,0,-0.3791,-0.3802,-0.3788,-0.3774,-0.3773,-0.377,-0.377,-0.377,-0.3748,-0.3747,-0.3747,-0.3746,-0.3729,-0.3728,-0.3728,-0.3737,0,0,-0.3727,-0.3727,0,0,0,0,0,0,0,0,-0.3792,-0.3791,-0.3776,-0.3775,-0.3774,-0.3761,-0.3768,-0.3759,-0.3748,-0.3757,-0.3747,-0.3746,-0.374,-0.3738,-0.3736,-0.3736,-0.3735,-0.3727,-0.3727,-0.3727,-0.3727,0,0,0,0,0,0,0,-0.3793,-0.3791,-0.3781,-0.3776,-0.3775,-0.3769,-0.3767,-0.3766,-0.3752,-0.3756,-0.3755,-0.3753,-0.3739,-0.3737,-0.3736,-0.3735,-0.3727,-0.3727,-0.3727,-0.3727,-0.3741,-0.3742,0,0,0,0,0,0,-0.3795,-0.3792,-0.3781,-0.378,-0.3782,-0.3769,-0.3767,-0.3765,-0.3752,-0.3749,-0.3754,-0.3752,-0.3737,-0.3736,-0.3735,-0.3745,-0.3727,-0.3727,-0.3727,-0.3741,-0.3742,-0.3742,0,0,0,0,0,0,-0.3796,-0.3795,-0.3782,-0.3786,-0.3784,-0.3769,-0.3768,-0.3765,-0.3763,-0.3749,-0.3747,-0.3754,-0.3737,-0.3735,-0.3737,-0.3744,-0.3727,-0.3727,-0.374,-0.3741,-0.3742,-0.3764,0,0,0,0,0,0,-0.3796,-0.3795,-0.3798,-0.3786,-0.3784,-0.3784,-0.3768,-0.3765,-0.3763,-0.3761,-0.3749,-0.3747,-0.3736,-0.3737,-0.3736,-0.3743,-0.3726,-0.374,-0.3741,-0.3742,-0.3762,-0.3765,-0.3768,0,0,0,0,0,-0.3797,-0.3805,-0.3799,-0.3797,-0.3787,-0.3785,-0.3783,-0.3771,-0.3763,-0.3767,-0.3758,-0.3747,-0.3743,-0.3737,-0.3736,-0.3743,-0.3739,-0.374,-0.3742,-0.3761,-0.3765,-0.3768,0,0,0,0,0,0,-0.3819,-0.3803,-0.3796,-0.38,-0.3794,-0.3781,-0.3785,-0.3775,-0.3771,-0.3769,-0.3754,-0.3752,-0.3755,-0.3749,-0.3743,-0.3751,-0.3739,-0.374,-0.3755,-0.3758,-0.3761,-0.3762,-0.3726,0,0,0,0,0,-0.3824,-0.3823,-0.381,-0.3815,-0.3812,-0.3799,-0.3797,-0.3789,-0.3781,-0.3778,-0.377,-0.3763,-0.376,-0.3759,-0.3755,-0.3761,-0.3758,-0.3765,-0.3768,-0.377,-0.3771,-0.3774,-0.3777,-0.3746,-0.3746,-0.3746,0,0,-0.3835,-0.3827,-0.3827,-0.3819,-0.3813,-0.3813,-0.3797,-0.3797,-0.3796,-0.3778,-0.3779,-0.3773,-0.3764,-0.3768,-0.3769,-0.3763,-0.3779,-0.3772,-0.3774,-0.3774,-0.3776,-0.3779,-0.3781,-0.3747,-0.3747,-0.3747,0,0,-0.3855,-0.3849,-0.3852,-0.3847,-0.3838,-0.3829,-0.383,-0.3818,-0.3813,-0.3814,-0.38,-0.3799,-0.3794,-0.3789,-0.3786,-0.3803,-0.3793,-0.3802,-0.3816,-0.3819,-0.3822,-0.3824,-0.383,-0.3833,-0.3803,-0.3804,-0.3804,0,-0.387,-0.3869,-0.3855,-0.3856,-0.3853,-0.3837,-0.384,-0.3835,-0.3826,-0.3824,-0.3817,-0.3811,-0.3804,-0.3807,-0.3811,-0.3809,-0.3809,-0.3804,-0.3822,-0.3824,-0.3826,-0.3832,-0.3834,-0.3805,-0.3805,-0.3804,-0.3804,0,-0.3888,-0.3887,-0.3891,-0.3882,-0.3879,-0.3882,-0.3868,-0.3867,-0.3859,-0.385,-0.3851,-0.3842,-0.3837,-0.3837,-0.3828,-0.3838,-0.3834,-0.3825,-0.3813,-0.383,-0.3836,-0.3838,-0.3806,-0.3806,-0.3806,-0.3805,0,0,-0.3921,-0.3905,-0.3907,-0.3902,-0.3891,-0.389,-0.3892,-0.3886,-0.3886,-0.388,-0.388,-0.3877,-0.3868,-0.3864,-0.3855,-0.3857,-0.3872,-0.3848,-0.3847,-0.3853,-0.3882,-0.3889,-0.3892,-0.3865,-0.3866,-0.3866,-0.3883,0,-0.3939,-0.3941,-0.3929,-0.3934,-0.3933,-0.3917,-0.3918,-0.3911,-0.3904,-0.3902,-0.3893,-0.3891,-0.388,-0.3877,-0.3879,-0.387,-0.3878,-0.3868,-0.3866,-0.3866,-0.3869,-0.3895,-0.3903,-0.3919,-0.3885,-0.3885,-0.3886,0,-0.3961,-0.3956,-0.3961,-0.3949,-0.3948,-0.395,-0.3944,-0.3942,-0.3934,-0.3928,-0.3924,-0.3913,-0.3913,-0.3902,-0.3902,-0.3896,-0.3894,-0.389,-0.389,-0.3889,-0.3877,-0.3896,-0.3924,-0.3927,-0.3889,-0.3888,-0.3888,0,-0.3985,-0.3979,-0.3982,-0.3979,-0.3965,-0.3966,-0.3961,-0.3952,-0.395,-0.3945,-0.3943,-0.3938,-0.3935,-0.3931,-0.3919,-0.3912,-0.3921,-0.3908,-0.3916,-0.3916,-0.3919,-0.3919,-0.3948,-0.3917,-0.3917,-0.3917,-0.3917,0,-0.4007,-0.401,-0.3992,-0.3994,-0.3997,-0.3983,-0.3987,-0.398,-0.3972,-0.3972,-0.3958,-0.3958,-0.3942,-0.394,-0.3931,-0.3932,-0.3931,-0.3927,-0.3924,-0.3928,-0.3929,-0.3927,-0.3926,-0.3918,-0.3918,-0.3918,-0.3918,0,-0.4035,-0.4023,-0.4024,-0.4011,-0.4008,-0.4011,-0.4,-0.4001,-0.3992,-0.3992,-0.3991,-0.3977,-0.3974,-0.3962,-0.3956,-0.395,-0.3955,-0.395,-0.3958,-0.3956,-0.3964,-0.3964,-0.3994,-0.3997,-0.3964,-0.3964,-0.3964,0,-0.4049,-0.4052,-0.4039,-0.4038,-0.4033,-0.4031,-0.4029,-0.4015,-0.4013,-0.4004,-0.4005,-0.4001,-0.3997,-0.3993,-0.3983,-0.3978,-0.3973,-0.3984,-0.3972,-0.3976,-0.3973,-0.3973,-0.3974,-0.3986,-0.3987,-0.3987,-0.3987,0,-0.4077,-0.4071,-0.4068,-0.4063,-0.406,-0.4055,-0.405,-0.4049,-0.4034,-0.4032,-0.4029,-0.4026,-0.402,-0.4016,-0.4009,-0.4003,-0.3993,-0.3991,-0.3992,-0.3997,-0.4001,-0.3999,-0.3965,-0.399,-0.399,-0.399,-0.399,-0.399,-0.4099,-0.41,-0.4091,-0.4088,-0.4083,-0.4078,-0.4078,-0.4069,-0.4066,-0.406,-0.4052,-0.405,-0.4042,-0.4032,-0.4027,-0.4025,-0.4019,-0.4021,-0.4022,-0.4023,-0.4025,-0.4001,-0.4024,-0.4024,-0.4023,-0.4023,-0.4023,0,-0.4125,-0.4119,-0.4117,-0.4109,-0.4107,-0.4097,-0.409,-0.4089,-0.4087,-0.408,-0.4077,-0.4073,-0.4069,-0.4058,-0.4053,-0.4054,-0.4049,-0.4053,-0.4053,-0.4052,-0.403,-0.403,-0.4057,-0.4057,-0.4057,-0.4057,-0.4057,-0.4057,-0.4139,-0.4141,-0.4134,-0.4133,-0.4127,-0.4125,-0.4122,-0.4117,-0.4112,-0.4108,-0.4105,-0.4098,-0.4089,-0.4084,-0.408,-0.4076,-0.4075,-0.4081,-0.4077,-0.4057,-0.4053,-0.405,-0.405,-0.4081,-0.4081,-0.4098,-0.4098,-0.4099]}]]